Station Historical Data
Daily Summary for March 19, 2017 Units:  English    Metric   Both
Next Day »
Daily Weekly Monthly Yearly Custom
  High: Low: Average:
Temperature: 66.5 °F 50.5 °F 56.4 °F
Dew Point: 51.2 °F 43.4 °F 47.9 °F
Humidity: 86% 54% 74%
Wind Speed: 12.0mph 0.0mph 1.7mph
Wind Gust: 16.0mph - -
Wind- - SE
Pressure: 30.10 in 30.00 in -
Precipitation: 0.00 in    
Historical Graphs
 
 
Tabular Data for March 19, 2017
Time Temperature Dew Point Pressure Wind Wind Speed Wind Gust Humidity Rainfall Rate (Hourly) solar Conditions
00:02 51.4 °F 47.4 °F 30.08 in ESE 1.0 mph 4.0 mph 86% 0.00 in 0.00 W/m2
00:07 51.4 °F 47.4 °F 30.08 in ESE 1.0 mph 2.0 mph 86% 0.00 in 0.00 W/m2
00:12 51.4 °F 47.4 °F 30.07 in ESE 2.0 mph 7.0 mph 86% 0.00 in 0.00 W/m2
00:17 51.4 °F 47.4 °F 30.07 in ESE 5.0 mph 5.0 mph 86% 0.00 in 0.00 W/m2
00:22 51.4 °F 47.4 °F 30.07 in ESE 1.0 mph 9.0 mph 86% 0.00 in 0.00 W/m2
00:27 51.5 °F 47.5 °F 30.07 in Calm   5.0 mph 86% 0.00 in 0.00 W/m2
00:32 51.5 °F 47.5 °F 30.07 in ESE 1.0 mph 2.0 mph 86% 0.00 in 0.00 W/m2
00:37 51.6 °F 47.6 °F 30.07 in Calm   11.0 mph 86% 0.00 in 0.00 W/m2
00:42 51.6 °F 47.6 °F 30.07 in Calm   6.0 mph 86% 0.00 in 0.00 W/m2
00:47 51.6 °F 47.6 °F 30.07 in Calm   7.0 mph 86% 0.00 in 0.00 W/m2
00:52 51.6 °F 47.6 °F 30.07 in Calm   7.0 mph 86% 0.00 in 0.00 W/m2
00:57 51.6 °F 47.6 °F 30.07 in Calm   4.0 mph 86% 0.00 in 0.00 W/m2
01:02 51.6 °F 47.6 °F 30.07 in Calm   4.0 mph 86% 0.00 in 0.00 W/m2
01:07 51.6 °F 47.6 °F 30.07 in Calm   4.0 mph 86% 0.00 in 0.00 W/m2
01:12 51.5 °F 47.5 °F 30.07 in Calm   4.0 mph 86% 0.00 in 0.00 W/m2
01:17 51.5 °F 47.5 °F 30.07 in Calm   2.0 mph 86% 0.00 in 0.00 W/m2
01:22 51.5 °F 47.5 °F 30.07 in Calm   2.0 mph 86% 0.00 in 0.00 W/m2
01:27 51.4 °F 47.4 °F 30.07 in Calm   2.0 mph 86% 0.00 in 0.00 W/m2
01:32 51.4 °F 47.4 °F 30.07 in ESE 5.0 mph 5.0 mph 86% 0.00 in 0.00 W/m2
01:37 51.4 °F 47.4 °F 30.07 in Calm     86% 0.00 in 0.00 W/m2
01:42 51.3 °F 47.3 °F 30.07 in Calm     86% 0.00 in 0.00 W/m2
01:47 51.3 °F 47.3 °F 30.08 in Calm     86% 0.00 in 0.00 W/m2
01:52 51.3 °F 47.3 °F 30.08 in ESE 1.0 mph 6.0 mph 86% 0.00 in 0.00 W/m2
01:57 51.2 °F 47.2 °F 30.07 in ESE 2.0 mph 2.0 mph 86% 0.00 in 0.00 W/m2
02:02 51.2 °F 47.2 °F 30.08 in Calm     86% 0.00 in 0.00 W/m2
02:07 51.1 °F 47.1 °F 30.08 in Calm   5.0 mph 86% 0.00 in 0.00 W/m2
02:17 51.0 °F 47.0 °F 30.08 in ESE 2.0 mph 4.0 mph 86% 0.00 in 0.00 W/m2
02:22 50.9 °F 46.9 °F 30.08 in ESE 2.0 mph 2.0 mph 86% 0.00 in 0.00 W/m2
02:27 50.9 °F 46.9 °F 30.08 in Calm   4.0 mph 86% 0.00 in 0.00 W/m2
02:33 50.8 °F 46.8 °F 30.08 in ESE 1.0 mph 5.0 mph 86% 0.00 in 0.00 W/m2
02:38 50.8 °F 46.8 °F 30.07 in ESE 1.0 mph 4.0 mph 86% 0.00 in 0.00 W/m2
02:43 50.8 °F 46.8 °F 30.08 in Calm   4.0 mph 86% 0.00 in 0.00 W/m2
02:48 50.7 °F 46.7 °F 30.07 in ESE 2.0 mph 5.0 mph 86% 0.00 in 0.00 W/m2
02:53 50.6 °F 46.6 °F 30.08 in Calm   5.0 mph 86% 0.00 in 0.00 W/m2
02:58 50.6 °F 46.6 °F 30.08 in ESE 2.0 mph 5.0 mph 86% 0.00 in 0.00 W/m2
03:03 50.6 °F 46.6 °F 30.07 in ESE 5.0 mph 8.0 mph 86% 0.00 in 0.00 W/m2
03:08 50.6 °F 46.6 °F 30.07 in Calm   5.0 mph 86% 0.00 in 0.00 W/m2
03:13 50.6 °F 46.6 °F 30.07 in ESE 1.0 mph 4.0 mph 86% 0.00 in 0.00 W/m2
03:18 50.6 °F 46.6 °F 30.07 in ESE 2.0 mph 6.0 mph 86% 0.00 in 0.00 W/m2
03:23 50.6 °F 46.6 °F 30.07 in Calm   4.0 mph 86% 0.00 in 0.00 W/m2
03:28 50.6 °F 46.6 °F 30.07 in Calm   6.0 mph 86% 0.00 in 0.00 W/m2
03:33 50.6 °F 46.6 °F 30.07 in Calm   2.0 mph 86% 0.00 in 0.00 W/m2
03:38 50.6 °F 46.6 °F 30.07 in Calm   1.0 mph 86% 0.00 in 0.00 W/m2
03:43 50.7 °F 46.7 °F 30.07 in ESE 1.0 mph 5.0 mph 86% 0.00 in 0.00 W/m2
03:48 50.7 °F 46.7 °F 30.08 in Calm   5.0 mph 86% 0.00 in 0.00 W/m2
03:53 50.7 °F 46.7 °F 30.07 in Calm   2.0 mph 86% 0.00 in 0.00 W/m2
03:58 50.8 °F 46.8 °F 30.07 in ESE 1.0 mph 6.0 mph 86% 0.00 in 0.00 W/m2
04:03 50.8 °F 46.8 °F 30.07 in Calm   2.0 mph 86% 0.00 in 0.00 W/m2
04:08 50.8 °F 46.5 °F 30.07 in Calm   5.0 mph 85% 0.00 in 0.00 W/m2
04:13 50.8 °F 46.5 °F 30.07 in Calm   7.0 mph 85% 0.00 in 0.00 W/m2
04:18 50.8 °F 46.5 °F 30.07 in ESE 4.0 mph 6.0 mph 85% 0.00 in 0.00 W/m2
04:23 50.8 °F 46.5 °F 30.07 in Calm   5.0 mph 85% 0.00 in 0.00 W/m2
04:28 50.8 °F 46.5 °F 30.08 in Calm   6.0 mph 85% 0.00 in 0.00 W/m2
04:33 50.8 °F 46.5 °F 30.08 in ESE 2.0 mph 6.0 mph 85% 0.00 in 0.00 W/m2
04:38 50.8 °F 46.5 °F 30.08 in Calm   8.0 mph 85% 0.00 in 0.00 W/m2
04:43 50.8 °F 46.5 °F 30.07 in ESE 2.0 mph 6.0 mph 85% 0.00 in 0.00 W/m2
04:48 50.8 °F 46.5 °F 30.07 in ESE 2.0 mph 7.0 mph 85% 0.00 in 0.00 W/m2
04:53 50.8 °F 46.5 °F 30.07 in East 4.0 mph 6.0 mph 85% 0.00 in 0.00 W/m2
04:58 50.8 °F 46.5 °F 30.07 in East 6.0 mph 9.0 mph 85% 0.00 in 0.00 W/m2
05:03 50.8 °F 46.2 °F 30.07 in ESE 2.0 mph 7.0 mph 84% 0.00 in 0.00 W/m2
05:08 50.7 °F 46.0 °F 30.07 in Calm   8.0 mph 84% 0.00 in 0.00 W/m2
05:13 50.7 °F 46.0 °F 30.08 in ESE 2.0 mph 8.0 mph 84% 0.00 in 0.00 W/m2
05:23 50.7 °F 45.7 °F 30.08 in Calm   11.0 mph 83% 0.00 in 0.00 W/m2
05:28 50.7 °F 45.7 °F 30.08 in ESE 8.0 mph 12.0 mph 83% 0.00 in 0.00 W/m2
05:33 50.7 °F 45.4 °F 30.08 in Calm   11.0 mph 82% 0.00 in 0.00 W/m2
05:38 50.7 °F 45.4 °F 30.08 in ESE 1.0 mph 9.0 mph 82% 0.00 in 0.00 W/m2
05:43 50.7 °F 45.4 °F 30.08 in ESE 5.0 mph 8.0 mph 82% 0.00 in 0.00 W/m2
05:48 50.7 °F 45.1 °F 30.08 in ESE 5.0 mph 8.0 mph 81% 0.00 in 0.00 W/m2
05:53 50.6 °F 45.0 °F 30.08 in Calm   7.0 mph 81% 0.00 in 0.00 W/m2
05:58 50.6 °F 45.0 °F 30.08 in ESE 4.0 mph 7.0 mph 81% 0.00 in 0.00 W/m2
06:03 50.6 °F 45.0 °F 30.08 in ESE 2.0 mph 9.0 mph 81% 0.00 in 0.00 W/m2
06:08 50.6 °F 45.0 °F 30.08 in ESE 1.0 mph 6.0 mph 81% 0.00 in 0.00 W/m2
06:13 50.6 °F 45.0 °F 30.08 in ESE 2.0 mph 12.0 mph 81% 0.00 in 0.00 W/m2
06:18 50.5 °F 44.6 °F 30.07 in ESE 2.0 mph 9.0 mph 80% 0.00 in 0.00 W/m2
06:23 50.5 °F 44.9 °F 30.08 in ESE 2.0 mph 12.0 mph 81% 0.00 in 0.00 W/m2
06:28 50.5 °F 44.6 °F 30.08 in East 1.0 mph 12.0 mph 80% 0.00 in 0.00 W/m2
06:34 50.5 °F 44.2 °F 30.08 in ESE 4.0 mph 9.0 mph 79% 0.00 in 0.00 W/m2
06:39 50.5 °F 44.2 °F 30.08 in Calm   11.0 mph 79% 0.00 in 0.00 W/m2
06:49 50.6 °F 44.3 °F 30.09 in East 5.0 mph 8.0 mph 79% 0.00 in 0.00 W/m2
06:54 50.6 °F 44.3 °F 30.09 in East 4.0 mph 11.0 mph 79% 0.00 in 0.00 W/m2
06:59 50.6 °F 44.3 °F 30.09 in East 4.0 mph 7.0 mph 79% 0.00 in 0.00 W/m2
07:04 50.6 °F 44.3 °F 30.09 in East 11.0 mph 14.0 mph 79% 0.00 in 0.00 W/m2
07:09 50.6 °F 44.0 °F 30.09 in Calm   6.0 mph 78% 0.00 in 0.00 W/m2
07:14 50.6 °F 44.3 °F 30.09 in East 4.0 mph 8.0 mph 79% 0.00 in 0.00 W/m2
07:19 50.6 °F 43.7 °F 30.10 in East 1.0 mph 11.0 mph 77% 0.00 in 5.00 W/m2
07:25 50.7 °F 43.4 °F 30.10 in Calm   9.0 mph 76% 0.00 in 7.00 W/m2
07:30 50.9 °F 43.6 °F 30.09 in ESE 6.0 mph 8.0 mph 76% 0.00 in 9.00 W/m2
07:35 51.0 °F 44.0 °F 30.09 in East 2.0 mph 14.0 mph 77% 0.00 in 11.00 W/m2
07:40 51.0 °F 43.7 °F 30.09 in East 1.0 mph 7.0 mph 76% 0.00 in 16.00 W/m2
07:45 51.0 °F 43.7 °F 30.10 in ESE 7.0 mph 7.0 mph 76% 0.00 in 18.00 W/m2
07:50 51.1 °F 44.2 °F 30.10 in ESE 2.0 mph 9.0 mph 77% 0.00 in 21.00 W/m2
07:55 51.2 °F 44.2 °F 30.10 in Calm   12.0 mph 77% 0.00 in 26.00 W/m2
08:00 51.2 °F 43.9 °F 30.09 in East 9.0 mph 16.0 mph 76% 0.00 in 49.00 W/m2
08:05 51.3 °F 44.3 °F 30.10 in East 2.0 mph 14.0 mph 77% 0.00 in 67.00 W/m2
08:10 51.4 °F 44.1 °F 30.10 in ESE 2.0 mph 6.0 mph 76% 0.00 in 72.00 W/m2
08:15 51.4 °F 44.1 °F 30.10 in Calm   6.0 mph 76% 0.00 in 72.00 W/m2
08:21 51.5 °F 44.2 °F 30.10 in East 1.0 mph 11.0 mph 76% 0.00 in 72.00 W/m2
08:26 51.7 °F 44.4 °F 30.10 in Calm   7.0 mph 76% 0.00 in 67.00 W/m2
08:31 51.8 °F 44.5 °F 30.10 in East 8.0 mph 9.0 mph 76% 0.00 in 65.00 W/m2
08:36 52.0 °F 44.7 °F 30.10 in ESE 4.0 mph 8.0 mph 76% 0.00 in 74.00 W/m2
08:41 52.1 °F 44.8 °F 30.10 in Calm   14.0 mph 76% 0.00 in 88.00 W/m2
08:46 52.2 °F 44.9 °F 30.10 in East 4.0 mph 11.0 mph 76% 0.00 in 111.00 W/m2
08:51 52.3 °F 44.6 °F 30.10 in Calm   8.0 mph 75% 0.00 in 95.00 W/m2
08:56 52.4 °F 44.4 °F 30.10 in Calm   14.0 mph 74% 0.00 in 128.00 W/m2
09:01 52.6 °F 44.9 °F 30.10 in Calm   8.0 mph 75% 0.00 in 156.00 W/m2
09:06 52.8 °F 45.1 °F 30.09 in SE 2.0 mph 13.0 mph 75% 0.00 in 223.00 W/m2
09:11 53.0 °F 45.3 °F 30.10 in ESE 4.0 mph 8.0 mph 75% 0.00 in 279.00 W/m2
09:16 53.2 °F 44.8 °F 30.09 in ESE 2.0 mph 8.0 mph 73% 0.00 in 199.00 W/m2
09:21 53.5 °F 45.1 °F 30.09 in Calm   7.0 mph 73% 0.00 in 162.00 W/m2
09:26 53.7 °F 44.9 °F 30.10 in East 1.0 mph 11.0 mph 72% 0.00 in 165.00 W/m2
09:31 54.0 °F 45.2 °F 30.10 in Calm   8.0 mph 72% 0.00 in 172.00 W/m2
09:36 54.3 °F 45.8 °F 30.10 in ESE 4.0 mph 11.0 mph 73% 0.00 in 176.00 W/m2
09:41 54.5 °F 46.0 °F 30.10 in East 5.0 mph 9.0 mph 73% 0.00 in 186.00 W/m2
09:46 54.8 °F 46.0 °F 30.10 in ESE 2.0 mph 9.0 mph 72% 0.00 in 172.00 W/m2
09:51 54.9 °F 45.7 °F 30.10 in Calm   12.0 mph 71% 0.00 in 183.00 W/m2
09:56 55.1 °F 45.9 °F 30.10 in ESE 1.0 mph 8.0 mph 71% 0.00 in 246.00 W/m2
10:01 55.3 °F 46.8 °F 30.10 in ESE 4.0 mph 9.0 mph 73% 0.00 in 279.00 W/m2
10:06 55.5 °F 47.0 °F 30.10 in SE 1.0 mph 12.0 mph 73% 0.00 in 304.00 W/m2
10:11 55.8 °F 46.9 °F 30.10 in ESE 4.0 mph 11.0 mph 72% 0.00 in 343.00 W/m2
10:16 56.1 °F 47.2 °F 30.10 in ESE 12.0 mph 12.0 mph 72% 0.00 in 622.00 W/m2
10:21 56.3 °F 47.0 °F 30.10 in SE 5.0 mph 12.0 mph 71% 0.00 in 429.00 W/m2
10:26 56.7 °F 47.4 °F 30.10 in SE 7.0 mph 8.0 mph 71% 0.00 in 533.00 W/m2
10:31 57.2 °F 47.5 °F 30.10 in SE 6.0 mph 11.0 mph 70% 0.00 in 555.00 W/m2
10:36 57.7 °F 46.8 °F 30.10 in SE 4.0 mph 12.0 mph 67% 0.00 in 367.00 W/m2
10:41 58.3 °F 47.4 °F 30.10 in Calm   11.0 mph 67% 0.00 in 657.00 W/m2
10:46 58.9 °F 46.8 °F 30.10 in Calm   12.0 mph 64% 0.00 in 455.00 W/m2
10:51 59.6 °F 48.2 °F 30.10 in Calm   12.0 mph 66% 0.00 in 411.00 W/m2
10:56 60.0 °F 48.2 °F 30.10 in SSE 2.0 mph 5.0 mph 65% 0.00 in 366.00 W/m2
11:01 60.4 °F 48.6 °F 30.10 in South 11.0 mph 12.0 mph 65% 0.00 in 445.00 W/m2
11:06 60.7 °F 48.5 °F 30.10 in SSW 2.0 mph 11.0 mph 64% 0.00 in 536.00 W/m2
11:11 61.1 °F 49.3 °F 30.10 in South 6.0 mph 10.0 mph 65% 0.00 in 833.00 W/m2
11:16 61.6 °F 48.5 °F 30.10 in South 4.0 mph 8.0 mph 62% 0.00 in 954.00 W/m2
11:21 62.0 °F 48.8 °F 30.10 in Calm   8.0 mph 62% 0.00 in 427.00 W/m2
11:26 62.3 °F 47.8 °F 30.10 in Calm   10.0 mph 59% 0.00 in 436.00 W/m2
11:31 62.6 °F 48.5 °F 30.10 in Calm   7.0 mph 60% 0.00 in 388.00 W/m2
11:36 62.8 °F 48.7 °F 30.10 in SSW 2.0 mph 8.0 mph 60% 0.00 in 417.00 W/m2
11:41 63.0 °F 48.9 °F 30.10 in Calm   5.0 mph 60% 0.00 in 313.00 W/m2
11:46 63.1 °F 49.0 °F 30.10 in Calm   4.0 mph 60% 0.00 in 466.00 W/m2
11:51 63.1 °F 49.0 °F 30.10 in South 3.0 mph 3.0 mph 60% 0.00 in 485.00 W/m2
11:56 63.2 °F 48.7 °F 30.10 in South 7.0 mph 9.0 mph 59% 0.00 in 854.00 W/m2
12:01 63.4 °F 48.8 °F 30.10 in South 1.0 mph 8.0 mph 59% 0.00 in 944.00 W/m2
12:06 63.7 °F 49.6 °F 30.09 in South 9.0 mph 13.0 mph 60% 0.00 in 875.00 W/m2
12:11 64.2 °F 47.7 °F 30.09 in SSW 12.0 mph 13.0 mph 55% 0.00 in 965.00 W/m2
12:16 64.7 °F 48.2 °F 30.09 in South 8.0 mph 13.0 mph 55% 0.00 in 754.00 W/m2
12:21 65.1 °F 49.0 °F 30.09 in Calm   11.0 mph 56% 0.00 in 438.00 W/m2
12:26 65.3 °F 49.7 °F 30.09 in SE 1.0 mph 14.0 mph 57% 0.00 in 684.00 W/m2
12:31 65.5 °F 49.4 °F 30.09 in South 7.0 mph 16.0 mph 56% 0.00 in 626.00 W/m2
12:36 65.7 °F 48.6 °F 30.09 in Calm   12.0 mph 54% 0.00 in 410.00 W/m2
12:41 65.8 °F 49.2 °F 30.09 in Calm   11.0 mph 55% 0.00 in 489.00 W/m2
12:46 65.8 °F 50.2 °F 30.09 in Calm   13.0 mph 57% 0.00 in 538.00 W/m2
12:51 66.0 °F 49.9 °F 30.09 in SSE 1.0 mph 14.0 mph 56% 0.00 in 538.00 W/m2
12:56 66.2 °F 50.5 °F 30.09 in SSE 9.0 mph 16.0 mph 57% 0.00 in 1037.00 W/m2
13:01 66.4 °F 50.7 °F 30.09 in SSE 8.0 mph 15.0 mph 57% 0.00 in 388.00 W/m2
13:06 66.5 °F 49.8 °F 30.08 in Calm   16.0 mph 55% 0.00 in 599.00 W/m2
13:11 66.5 °F 49.8 °F 30.08 in Calm   11.0 mph 55% 0.00 in 455.00 W/m2
13:16 66.4 °F 49.8 °F 30.08 in SSW 11.0 mph 12.0 mph 55% 0.00 in 837.00 W/m2
13:21 66.4 °F 50.2 °F 30.08 in SSW 2.0 mph 12.0 mph 56% 0.00 in 591.00 W/m2
13:26 66.5 °F 50.8 °F 30.08 in SW 7.0 mph 11.0 mph 57% 0.00 in 466.00 W/m2
13:31 66.4 °F 49.8 °F 30.08 in SW 1.0 mph 16.0 mph 55% 0.00 in 429.00 W/m2
13:36 66.2 °F 50.1 °F 30.08 in SW 9.0 mph 13.0 mph 56% 0.00 in 563.00 W/m2
13:41 66.0 °F 49.9 °F 30.07 in SSW 2.0 mph 13.0 mph 56% 0.00 in 812.00 W/m2
13:46 66.1 °F 50.4 °F 30.07 in Calm   15.0 mph 57% 0.00 in 628.00 W/m2
13:51 66.1 °F 50.4 °F 30.07 in SSW 9.0 mph 14.0 mph 57% 0.00 in 380.00 W/m2
13:56 65.9 °F 50.2 °F 30.07 in SE 2.0 mph 12.0 mph 57% 0.00 in 489.00 W/m2
14:01 65.9 °F 50.2 °F 30.07 in Calm   12.0 mph 57% 0.00 in 504.00 W/m2
14:06 65.9 °F 51.2 °F 30.07 in Calm   13.0 mph 59% 0.00 in 410.00 W/m2
14:11 65.8 °F 50.2 °F 30.06 in Calm     57% 0.00 in 359.00 W/m2
14:17 65.8 °F 50.6 °F 30.06 in SE 2.0 mph 10.0 mph 58% 0.00 in 287.00 W/m2
14:22 65.8 °F 50.2 °F 30.06 in Calm   2.0 mph 57% 0.00 in 241.00 W/m2
14:27 65.6 °F 50.4 °F 30.07 in Calm   5.0 mph 58% 0.00 in 220.00 W/m2
14:32 65.5 °F 50.3 °F 30.06 in Calm     58% 0.00 in 221.00 W/m2
14:37 65.3 °F 50.2 °F 30.06 in SW 8.0 mph 9.0 mph 58% 0.00 in 227.00 W/m2
14:42 65.1 °F 50.4 °F 30.06 in South 6.0 mph 9.0 mph 59% 0.00 in 281.00 W/m2
14:47 64.9 °F 50.7 °F 30.06 in Calm   8.0 mph 60% 0.00 in 345.00 W/m2
14:52 64.8 °F 50.6 °F 30.06 in South 7.0 mph 7.0 mph 60% 0.00 in 352.00 W/m2
14:57 64.6 °F 50.9 °F 30.06 in SSW 8.0 mph 10.0 mph 61% 0.00 in 311.00 W/m2
15:02 64.5 °F 50.3 °F 30.06 in SSE 4.0 mph 11.0 mph 60% 0.00 in 258.00 W/m2
15:07 64.4 °F 50.7 °F 30.06 in South 2.0 mph 2.0 mph 61% 0.00 in 258.00 W/m2
15:12 64.3 °F 50.6 °F 30.06 in SSW 2.0 mph 8.0 mph 61% 0.00 in 214.00 W/m2
15:17 64.1 °F 50.4 °F 30.06 in Calm     61% 0.00 in 183.00 W/m2
15:22 63.9 °F 50.6 °F 30.06 in WSW 1.0 mph 8.0 mph 62% 0.00 in 179.00 W/m2
15:27 63.7 °F 50.5 °F 30.06 in Calm   8.0 mph 62% 0.00 in 225.00 W/m2
15:32 63.4 °F 49.7 °F 30.06 in Calm   7.0 mph 61% 0.00 in 244.00 W/m2
15:37 63.1 °F 49.9 °F 30.06 in Calm     62% 0.00 in 244.00 W/m2
15:42 62.9 °F 50.1 °F 30.06 in Calm     63% 0.00 in 257.00 W/m2
15:47 62.7 °F 49.9 °F 30.05 in West 1.0 mph 3.0 mph 63% 0.00 in 253.00 W/m2
15:52 62.6 °F 49.8 °F 30.06 in Calm   1.0 mph 63% 0.00 in 246.00 W/m2
15:57 62.5 °F 50.2 °F 30.05 in Calm   1.0 mph 64% 0.00 in 227.00 W/m2
16:02 62.5 °F 50.2 °F 30.05 in Calm     64% 0.00 in 234.00 W/m2
16:07 62.3 °F 50.0 °F 30.05 in Calm     64% 0.00 in 244.00 W/m2
16:12 62.2 °F 50.7 °F 30.05 in Calm     66% 0.00 in 209.00 W/m2
16:17 62.1 °F 50.2 °F 30.05 in Calm     65% 0.00 in 181.00 W/m2
16:22 62.1 °F 50.6 °F 30.05 in Calm     66% 0.00 in 162.00 W/m2
16:27 62.1 °F 50.6 °F 30.06 in Calm     66% 0.00 in 141.00 W/m2
16:32 62.0 °F 50.5 °F 30.06 in SSW 2.0 mph 2.0 mph 66% 0.00 in 132.00 W/m2
16:37 62.0 °F 49.7 °F 30.06 in Calm     64% 0.00 in 137.00 W/m2
16:42 61.9 °F 50.0 °F 30.06 in SSW 2.0 mph 2.0 mph 65% 0.00 in 137.00 W/m2
16:47 61.9 °F 50.0 °F 30.05 in SSW 1.0 mph 2.0 mph 65% 0.00 in 139.00 W/m2
16:52 61.8 °F 49.5 °F 30.05 in Calm     64% 0.00 in 149.00 W/m2
16:57 61.7 °F 50.2 °F 30.05 in Calm   4.0 mph 66% 0.00 in 176.00 W/m2
17:02 61.7 °F 50.2 °F 30.05 in Calm     66% 0.00 in 185.00 W/m2
17:07 61.6 °F 50.5 °F 30.05 in Calm     67% 0.00 in 172.00 W/m2
17:12 61.5 °F 50.0 °F 30.04 in South 2.0 mph 3.0 mph 66% 0.00 in 156.00 W/m2
17:17 61.4 °F 49.5 °F 30.05 in Calm   3.0 mph 65% 0.00 in 153.00 W/m2
17:22 61.4 °F 50.0 °F 30.04 in Calm     66% 0.00 in 139.00 W/m2
17:27 61.3 °F 49.5 °F 30.04 in Calm   2.0 mph 65% 0.00 in 128.00 W/m2
17:32 61.2 °F 49.3 °F 30.04 in Calm     65% 0.00 in 127.00 W/m2
17:37 61.1 °F 49.7 °F 30.04 in Calm     66% 0.00 in 109.00 W/m2
17:42 61.1 °F 50.1 °F 30.03 in Calm   1.0 mph 67% 0.00 in 93.00 W/m2
17:47 61.0 °F 49.6 °F 30.03 in Calm     66% 0.00 in 91.00 W/m2
17:52 60.9 °F 49.9 °F 30.03 in Calm     67% 0.00 in 86.00 W/m2
17:58 60.7 °F 50.1 °F 30.03 in Calm     68% 0.00 in 76.00 W/m2
18:03 60.6 °F 49.6 °F 30.03 in Calm     67% 0.00 in 65.00 W/m2
18:08 60.4 °F 49.8 °F 30.03 in Calm     68% 0.00 in 56.00 W/m2
18:13 60.3 °F 50.1 °F 30.03 in Calm     69% 0.00 in 44.00 W/m2
18:18 60.2 °F 50.0 °F 30.03 in Calm     69% 0.00 in 35.00 W/m2
18:23 59.8 °F 50.4 °F 30.03 in Calm     71% 0.00 in 32.00 W/m2
18:28 59.5 °F 50.5 °F 30.03 in Calm     72% 0.00 in 25.00 W/m2
18:33 59.3 °F 49.9 °F 30.03 in Calm     71% 0.00 in 23.00 W/m2
18:38 59.1 °F 50.1 °F 30.03 in Calm     72% 0.00 in 19.00 W/m2
18:43 58.9 °F 50.3 °F 30.03 in Calm     73% 0.00 in 19.00 W/m2
18:48 58.6 °F 50.3 °F 30.03 in Calm     74% 0.00 in 19.00 W/m2
18:53 58.4 °F 49.8 °F 30.03 in Calm     73% 0.00 in 16.00 W/m2
18:58 58.2 °F 50.0 °F 30.03 in Calm     74% 0.00 in 11.00 W/m2
19:03 58.0 °F 49.4 °F 30.03 in Calm     73% 0.00 in 7.00 W/m2
19:08 57.9 °F 49.7 °F 30.04 in Calm     74% 0.00 in 5.00 W/m2
19:13 57.8 °F 49.2 °F 30.04 in Calm     73% 0.00 in 0.00 W/m2
19:18 57.6 °F 49.4 °F 30.04 in Calm     74% 0.00 in 0.00 W/m2
19:23 57.3 °F 49.1 °F 30.04 in Calm     74% 0.00 in 0.00 W/m2
19:28 57.1 °F 49.3 °F 30.05 in Calm     75% 0.00 in 0.00 W/m2
19:33 56.9 °F 49.1 °F 30.04 in Calm     75% 0.00 in 0.00 W/m2
19:38 56.6 °F 49.1 °F 30.04 in Calm     76% 0.00 in 0.00 W/m2
19:43 56.4 °F 49.3 °F 30.04 in Calm     77% 0.00 in 0.00 W/m2
19:48 56.2 °F 49.1 °F 30.05 in Calm     77% 0.00 in 0.00 W/m2
19:53 56.0 °F 48.9 °F 30.05 in Calm     77% 0.00 in 0.00 W/m2
19:58 56.0 °F 48.9 °F 30.05 in Calm   1.0 mph 77% 0.00 in 0.00 W/m2
20:03 55.9 °F 49.2 °F 30.05 in Calm     78% 0.00 in 0.00 W/m2
20:08 55.7 °F 49.0 °F 30.05 in Calm     78% 0.00 in 0.00 W/m2
20:13 55.6 °F 48.9 °F 30.05 in Calm     78% 0.00 in 0.00 W/m2
20:18 55.5 °F 49.1 °F 30.05 in Calm   1.0 mph 79% 0.00 in 0.00 W/m2
20:23 55.3 °F 48.9 °F 30.05 in SSE 2.0 mph 4.0 mph 79% 0.00 in 0.00 W/m2
20:28 55.2 °F 48.8 °F 30.05 in Calm   5.0 mph 79% 0.00 in 0.00 W/m2
20:33 55.1 °F 48.7 °F 30.05 in Calm   6.0 mph 79% 0.00 in 0.00 W/m2
20:38 55.1 °F 48.7 °F 30.04 in Calm   5.0 mph 79% 0.00 in 0.00 W/m2
20:44 55.0 °F 48.6 °F 30.04 in East 6.0 mph 8.0 mph 79% 0.00 in 0.00 W/m2
20:49 54.9 °F 48.5 °F 30.03 in ESE 4.0 mph 6.0 mph 79% 0.00 in 0.00 W/m2
20:54 54.8 °F 48.4 °F 30.03 in East 1.0 mph 12.0 mph 79% 0.00 in 0.00 W/m2
20:59 54.8 °F 48.8 °F 30.03 in ESE 1.0 mph 5.0 mph 80% 0.00 in 0.00 W/m2
21:04 54.8 °F 48.8 °F 30.03 in ESE 6.0 mph 6.0 mph 80% 0.00 in 0.00 W/m2
21:09 54.8 °F 48.8 °F 30.02 in ESE 2.0 mph 8.0 mph 80% 0.00 in 0.00 W/m2
21:14 54.8 °F 48.1 °F 30.01 in East 5.0 mph 7.0 mph 78% 0.00 in 0.00 W/m2
21:19 54.9 °F 48.2 °F 30.02 in ESE 5.0 mph 13.0 mph 78% 0.00 in 0.00 W/m2
21:24 55.0 °F 48.3 °F 30.01 in East 4.0 mph 9.0 mph 78% 0.00 in 0.00 W/m2
21:29 55.1 °F 48.7 °F 30.02 in Calm   12.0 mph 79% 0.00 in 0.00 W/m2
21:34 55.3 °F 48.6 °F 30.02 in SE 4.0 mph 9.0 mph 78% 0.00 in 0.00 W/m2
21:39 55.4 °F 48.7 °F 30.02 in Calm   7.0 mph 78% 0.00 in 0.00 W/m2
21:44 55.4 °F 48.7 °F 30.02 in Calm   5.0 mph 78% 0.00 in 0.00 W/m2
21:49 55.5 °F 48.8 °F 30.03 in ESE 1.0 mph 6.0 mph 78% 0.00 in 0.00 W/m2
21:54 55.5 °F 48.8 °F 30.03 in SE 2.0 mph 5.0 mph 78% 0.00 in 0.00 W/m2
21:59 55.5 °F 48.8 °F 30.03 in SE 2.0 mph 4.0 mph 78% 0.00 in 0.00 W/m2
22:04 55.5 °F 48.8 °F 30.03 in Calm     78% 0.00 in 0.00 W/m2
22:09 55.5 °F 48.8 °F 30.03 in Calm     78% 0.00 in 0.00 W/m2
22:14 55.5 °F 48.8 °F 30.04 in SE 1.0 mph 2.0 mph 78% 0.00 in 0.00 W/m2
22:19 55.5 °F 48.8 °F 30.04 in Calm     78% 0.00 in 0.00 W/m2
22:24 55.4 °F 49.0 °F 30.04 in Calm     79% 0.00 in 0.00 W/m2
22:29 55.3 °F 48.9 °F 30.04 in Calm     79% 0.00 in 0.00 W/m2
22:34 55.2 °F 48.8 °F 30.04 in Calm     79% 0.00 in 0.00 W/m2
22:39 55.1 °F 48.7 °F 30.04 in Calm     79% 0.00 in 0.00 W/m2
22:44 55.0 °F 48.3 °F 30.04 in Calm     78% 0.00 in 0.00 W/m2
22:49 54.9 °F 48.5 °F 30.04 in Calm   1.0 mph 79% 0.00 in 0.00 W/m2
22:54 54.8 °F 48.4 °F 30.03 in Calm     79% 0.00 in 0.00 W/m2
22:59 54.7 °F 48.3 °F 30.03 in Calm     79% 0.00 in 0.00 W/m2
23:04 54.5 °F 48.5 °F 30.04 in Calm     80% 0.00 in 0.00 W/m2
23:09 54.3 °F 48.6 °F 30.03 in Calm     81% 0.00 in 0.00 W/m2
23:14 53.9 °F 48.2 °F 30.03 in Calm     81% 0.00 in 0.00 W/m2
23:19 53.5 °F 48.2 °F 30.03 in Calm     82% 0.00 in 0.00 W/m2
23:24 53.2 °F 47.9 °F 30.02 in Calm     82% 0.00 in 0.00 W/m2
23:29 52.9 °F 47.9 °F 30.02 in Calm     83% 0.00 in 0.00 W/m2
23:34 52.7 °F 47.7 °F 30.02 in SSE 1.0 mph 2.0 mph 83% 0.00 in 0.00 W/m2
23:39 52.5 °F 47.5 °F 30.02 in Calm     83% 0.00 in 0.00 W/m2
23:44 52.4 °F 47.7 °F 30.01 in ESE 2.0 mph 5.0 mph 84% 0.00 in 0.00 W/m2
23:49 52.3 °F 47.6 °F 30.01 in East 1.0 mph 6.0 mph 84% 0.00 in 0.00 W/m2
23:54 52.2 °F 47.5 °F 30.01 in Calm   4.0 mph 84% 0.00 in 0.00 W/m2
23:59 52.1 °F 47.4 °F 30.00 in East 5.0 mph 6.0 mph 84% 0.00 in 0.00 W/m2
Foresthill Weather
 WU-history PHP script courtesy of   Juneau County Weather.
powered by Cumulus v1.9.3 (1059)
Ambient Weather VWS v14.00
Top Contact Website Map Copyright © 2007 - 2018 Foresthillweather.com Never base important decisions on this or any weather information obtained from the Internet